Date String (YYYY-MM-DD hh:mm:ss) UTC,Instrument flags,Ambient pressure (hPa),Sample flow (lpm),Bypass flow (lpm),Sample temperature (°C),Ambient temperature (°C),ASC tube jacket temperature (°C),LED temperature (°C),Box temperature (°C),Sample RH (%),Span deviation,Mass concentration (μg/m³),Mass concentration (μg/m³),Mass concentration (μg/m³)
DateTimeUTC,F1_M11,P_M11,Q1_M11,Q2_M11,T1_M11,T2_M11,T3_M11,T4_M11,T5_M11,U1_M11,ZSPAN_M11,X2_M11,X0_M11,X1_M11
2021-09-13 04:00:00,,0829.0,5.01,0.00,29.5,28.6,00.0,38.5,31.3,27.4,0001.0,0006.25,0011.84,0005.19
2021-09-13 04:01:00,,0829.0,5.00,0.00,29.5,28.7,00.0,38.5,31.3,27.3,0001.5,0006.31,0012.02,0005.19
2021-09-13 04:02:00,,0829.0,5.01,0.00,29.5,28.7,00.0,38.5,31.3,27.5,0001.7,0006.31,0011.89,0005.18
2021-09-13 04:03:00,,0828.9,5.00,0.00,29.5,28.8,00.0,38.6,31.3,27.6,0002.0,0006.31,0011.65,0005.18
2021-09-13 04:04:00,,0828.9,5.00,0.00,29.6,28.8,00.0,38.6,31.3,27.3,0002.2,0006.34,0011.53,0005.18
2021-09-13 04:05:00,,0828.9,4.99,0.00,29.6,28.8,00.0,38.6,31.4,27.0,0001.9,0006.30,0011.27,0005.19
2021-09-13 04:06:00,,0828.9,5.01,0.00,29.6,28.8,00.0,38.6,31.4,27.1,0001.7,0006.28,0010.82,0005.19
2021-09-13 04:07:00,,0828.9,5.01,0.00,29.6,28.8,00.0,38.6,31.4,27.1,0001.2,0006.29,0010.90,0005.19
2021-09-13 04:08:00,,0828.9,5.00,0.00,29.6,28.9,00.0,38.7,31.4,27.1,0000.8,0006.29,0010.94,0005.17
2021-09-13 04:09:00,,0828.9,5.00,0.00,29.6,28.9,00.0,38.7,31.4,27.1,0000.6,0006.24,0010.46,0005.16
2021-09-13 04:10:00,,0828.9,4.99,0.00,29.7,28.9,00.0,38.7,31.4,27.1,0001.0,0006.22,0010.42,0005.15
2021-09-13 04:11:00,,0828.9,5.00,0.00,29.7,28.9,00.0,38.7,31.4,27.2,0001.4,0006.25,0011.12,0005.16
2021-09-13 04:12:00,,0828.9,5.01,0.00,29.7,28.9,00.0,38.7,31.4,27.2,0000.8,0006.19,0011.36,0005.17
2021-09-13 04:13:00,,0829.0,5.00,0.00,29.7,29.0,00.0,38.7,31.5,26.9,0000.5,0006.18,0011.97,0005.18
2021-09-13 04:14:00,,0829.0,5.00,0.00,29.7,29.0,00.0,38.7,31.5,27.1,0000.3,0006.20,0012.46,0005.19
2021-09-13 04:15:00,,0828.9,5.00,0.00,29.7,28.4,00.0,38.8,31.3,26.9,0000.3,0006.18,0012.93,0005.19
2021-09-13 04:16:00,,0828.9,5.01,0.00,29.6,26.6,00.0,38.7,30.9,26.8,0000.1,0006.18,0013.70,0005.20
2021-09-13 04:17:00,,0828.9,5.00,0.00,29.5,26.0,00.0,38.7,30.8,27.6,0000.0,0006.16,0013.66,0005.19
2021-09-13 04:18:00,,0828.9,5.00,0.00,29.4,26.2,00.0,38.6,30.8,27.8,0000.0,0006.15,0014.31,0005.19
2021-09-13 04:19:00,,0828.9,5.00,0.00,29.3,26.7,00.0,38.6,30.9,27.6,0001.0,0006.14,0014.56,0005.18
2021-09-13 04:20:00,,0828.8,5.00,0.00,29.3,27.1,00.0,38.6,30.9,27.6,0000.8,0006.20,0015.16,0005.19
2021-09-13 04:21:00,,0828.8,4.99,0.00,29.3,27.4,00.0,38.5,30.9,27.5,0000.5,0006.17,0015.32,0005.19
2021-09-13 04:22:00,,0828.8,5.01,0.00,29.3,27.6,00.0,38.5,31.0,27.4,0000.8,0006.15,0014.95,0005.19
2021-09-13 04:23:00,,0828.8,4.99,0.00,29.3,27.8,00.0,38.5,31.0,27.4,0000.8,0006.18,0014.87,0005.18
2021-09-13 04:24:00,,0828.8,5.00,0.00,29.4,28.0,00.0,38.5,31.1,27.4,0001.1,0006.16,0014.21,0005.18
2021-09-13 04:25:00,,0828.9,5.01,0.00,29.4,28.1,00.0,38.5,31.1,27.3,0001.6,0006.11,0013.89,0005.15
2021-09-13 04:26:00,,0828.9,4.99,0.00,29.4,28.3,00.0,38.5,31.2,27.2,0001.9,0006.09,0013.76,0005.16
2021-09-13 04:27:00,,0828.8,4.99,0.00,29.4,28.3,00.0,38.5,31.2,27.2,0002.0,0006.07,0012.91,0005.14
2021-09-13 04:28:00,,0828.9,5.01,0.00,29.4,28.4,00.0,38.5,31.2,27.2,0001.8,0006.06,0012.92,0005.14
2021-09-13 04:29:00,,0829.2,4.98,0.00,29.5,28.5,00.0,38.5,31.3,27.1,0001.4,0006.07,0012.42,0005.14
2021-09-13 04:30:00,,0829.2,5.00,0.00,29.5,28.6,00.0,38.5,31.3,27.0,0001.3,0006.05,0012.06,0005.15
2021-09-13 04:31:00,,0829.3,5.00,0.00,29.5,28.6,00.0,38.6,31.3,26.9,0001.5,0006.06,0011.62,0005.15
2021-09-13 04:32:00,,0829.2,5.00,0.00,29.5,28.6,00.0,38.6,31.3,26.8,0001.2,0006.08,0012.09,0005.15
2021-09-13 04:33:00,,0829.1,4.99,0.00,29.5,28.7,00.0,38.6,31.3,26.8,0000.8,0006.09,0012.32,0005.13
2021-09-13 04:34:00,,0828.8,4.99,0.00,29.6,28.7,00.0,38.6,31.4,26.7,0000.6,0006.09,0012.93,0005.13
2021-09-13 04:35:00,,0828.7,5.01,0.00,29.6,28.7,00.0,38.6,31.4,26.5,0000.6,0006.12,0013.21,0005.13
2021-09-13 04:36:00,,0828.8,4.99,0.00,29.6,28.8,00.0,38.6,31.4,26.4,0000.7,0006.16,0013.92,0005.14
2021-09-13 04:37:00,,0828.7,5.00,0.00,29.6,28.8,00.0,38.6,31.4,26.5,0000.4,0006.19,0013.81,0005.13
2021-09-13 04:38:00,,0828.7,5.00,0.00,29.7,28.8,00.0,38.7,31.5,26.6,0000.6,0006.18,0013.78,0005.14
2021-09-13 04:39:00,,0828.7,5.00,0.00,29.7,28.9,00.0,38.7,31.5,26.5,0000.8,0006.22,0013.92,0005.14
2021-09-13 04:40:00,,0828.7,5.00,0.00,29.7,28.9,00.0,38.7,31.5,26.1,0001.0,0006.24,0013.91,0005.13
2021-09-13 04:41:00,,0828.7,5.00,0.00,29.7,28.9,00.0,38.7,31.5,26.0,0001.0,0006.26,0013.93,0005.13
2021-09-13 04:42:00,,0828.8,5.00,0.00,29.8,29.0,00.0,38.7,31.6,26.2,0000.8,0006.25,0013.85,0005.12
2021-09-13 04:43:00,,0828.7,5.01,0.00,29.8,29.0,00.0,38.8,31.6,26.4,0000.6,0006.23,0013.12,0005.12
2021-09-13 04:44:00,,0828.7,5.00,0.00,29.8,29.0,00.0,38.8,31.6,26.2,0000.7,0006.27,0012.87,0005.14
2021-09-13 04:45:00,,0828.9,5.01,0.00,29.8,29.1,00.0,38.8,31.6,26.1,0001.0,0006.29,0012.63,0005.15
2021-09-13 04:46:00,,0829.1,5.00,0.00,29.8,29.1,00.0,38.8,31.7,26.0,0001.0,0006.28,0012.72,0005.16
2021-09-13 04:47:00,,0829.2,4.99,0.00,29.9,29.1,00.0,38.9,31.7,25.9,0000.6,0006.25,0012.03,0005.17
2021-09-13 04:48:00,,0829.2,5.01,0.00,29.9,29.1,00.0,38.9,31.6,25.8,0000.4,0006.24,0011.96,0005.16
2021-09-13 04:49:00,,0828.9,4.99,0.00,29.9,28.8,00.0,38.9,31.6,25.7,0000.5,0006.28,0012.31,0005.14
2021-09-13 04:50:00,,0828.7,5.01,0.00,29.8,26.9,00.0,38.8,31.0,25.8,0000.8,0006.27,0012.25,0005.14
2021-09-13 04:51:00,,0828.8,5.00,0.00,29.6,26.0,00.0,38.8,30.9,25.7,0000.6,0006.22,0012.14,0005.14
2021-09-13 04:52:00,,0828.6,5.00,0.00,29.5,26.3,00.0,38.8,30.9,26.2,0000.7,0006.21,0012.09,0005.14
2021-09-13 04:53:00,,0828.9,4.99,0.00,29.4,26.7,00.0,38.7,30.9,26.2,0001.3,0006.17,0012.06,0005.13
2021-09-13 04:54:00,,0828.7,5.00,0.00,29.4,27.1,00.0,38.7,31.0,26.2,0002.0,0006.17,0012.18,0005.13
2021-09-13 04:55:00,,0828.9,5.01,0.00,29.4,27.4,00.0,38.7,31.1,26.1,0002.1,0006.11,0012.19,0005.08
2021-09-13 04:56:00,,0829.2,4.99,0.00,29.4,27.7,00.0,38.7,31.1,26.0,0002.0,0006.09,0012.22,0005.05
2021-09-13 04:57:00,,0829.1,5.01,0.00,29.5,27.9,00.0,38.6,31.2,26.1,0002.2,0006.07,0012.03,0005.02
2021-09-13 04:58:00,,0829.2,4.99,0.00,29.5,28.1,00.0,38.6,31.2,26.2,0002.4,0006.05,0011.82,0005.00
2021-09-13 04:59:00,,0829.2,5.02,0.00,29.5,28.2,00.0,38.6,31.2,25.9,0002.8,0006.04,0011.99,0004.99
